[Date Prev][Date Next][Thread Prev][Thread Next][Date Index][Thread Index]

[jamsat-news:1064] jas2info #130



=========================   最新情報   ==============================

        Last updated :Sat.10-Apr.-1999 18:00 (JST) #130

====================================================================
   
     衛星情報 FOシリーズの軌道要素、テレメトリ、QSOの状況等を
   まとめてみました.

  1)  FO−29(ふじ3号)は、4月6日(火)の13:06(JST)の
     パスでは試験的にJDディジタルのテストが行われていましたが、4月10
     日(土)16:30(JST)のパスではJAモードのアナログ系運用に
     なっており、テレメトリはCWモールスの信号で力強くRS59+10dbで
     安定して聞こえました.
       
 ■ 軌道要素1:「jamsatーkeps:877」より
                 SB KEPS @ AMSAT  $ORB99099.N
                 2Line Orbital Elements 99099.AMSAT

  HR AMSAT ORBITAL ELEMENTS FOR AMATEUR SATELLITES IN NASA FORMAT
  FROM WA5QGD FORT WORTH,TX April 9, 1999
  SEND SUBSCRIBE/UNSUBSCRIBE TO majordomo@amsat.org ONLY
  BID: ORB99099.N

 DECODE 2-LINE ELSETS WITH THE FOLLOWING KEY:
 1 AAAAAU 00  0  0 BBBBB.BBBBBBBB  .CCCCCCCC  00000-0  00000-0 0  DDDZ
 2 AAAAA EEE.EEEE FFF.FFFF GGGGGGG HHH.HHHH III.IIII JJ.JJJJJJJJKKKKKZ
 KEY: A-CATALOGNUM B-EPOCHTIME C-DECAY D-ELSETNUM E-INCLINATION F-RAAN
 G-ECCENTRICITY H-ARGPERIGEE I-MNANOM J-MNMOTION K-ORBITNUM Z-CHECKSUM

 TO ALL RADIO AMATEURS BT

  FO-29
  1 24278U 96046B   99097.94055713 -.00000010  00000-0  28670-4 0 02662
  2 24278 098.5525 058.4956 0350772 276.1484 079.9804 13.52665386130312
   
 ■ 軌道要素2:「jamsatーkeps:878」より
                 SB KEPS @ AMSAT  $ORB99099.O
                 Orbital Elements  99099.OSCAR

  HR AMSAT ORBITAL ELEMENTS FOR OSCAR SATELLITES
  FROM WA5QGD FORT WORTH,TX April 9, 1999
  SEND SUBSCRIBE/UNSUBSCRIBE TO majordomo@amsat.org ONLY
  BID: ORB99099.O
  TO ALL RADIO AMATEURS BT

 Satellite: FO-29
  Catalog number: 24278
  Epoch time:      99097.94055713
  Element set:    0266
  Inclination:      098.5525 deg
  RA of node:       058.4956 deg
  Eccentricity:    0.0350772
  Arg of perigee:   276.1484 deg
  Mean anomaly:     079.9804 deg
  Mean motion:   13.52665386 rev/day
  Decay rate:       -1.0e-07 rev/day^2
  Epoch rev:           13031
  Checksum:              346
 
 -----------------------------------------------------------
  2)FO−29(ふじ3号)の 4月10日(土)のJAアナログテレメトリの
    一部分は次のようになっていました.10日以前のデータも掲示しておきます.
 
 AS13064C1    10Apr99
 JST  16:30 - 16:39

  HI HI AE C7 88 55 00 95 FF 0D 00 56 6F 56 78 5F 92 90 B0 50 AF AF B4 B1 AE 
  HI HI AE C7 88 55 0A 95 FF 0D 00 56 3E 66 8C 5F 92 90 B1 62 AF AE B4 B1 AE 
  HI HI AE C7 88 55 0F 95 05 0D 00 56 87 5C 8A 60 93 90 B0 70 AF AE B4 B1 AE 
  HI HI AE C7 88 55 0E 95 FF 0D 00 56 51 2F 8D 60 93 90 B0 55 AF AE B4 B1 AF 
  HI HI AE C7 88 55 19 95 FF 1E 00 56 51 83 7C 60 93 90 B0 8A AE AE B4 B1 AE 
  HI HI AE C7 88 55 1E 95 FF 0D 00 56 91 5C 8B 60 93 90 B0 6B AE AE B3 B1 AE 
  HI HI AE C7 88 55 03 95 FF 0D 00 56 3F 40 8C 60 93 90 B0 76 AE AE B3 B1 AE 
  HI HI AE C7 88 55 08 95 FF 0D 00 56 67 A5 73 60 93 90 B0 5O AE AE B3 B1 AE 
  HI HI AE C7 88 55 0D 95 FF 0D 00 56 8F 54 84 60 93 90 B0 74 AE AD B3 B1 AF 
  HI HI AE C7 88 55 12 9E FF 00 00 56 33 58 84 60 93 90 B0 53 AE AD B3 B1 AF 
  HI HI AE C7 88 55 17 95 0A 0D 00 56 73 B5 69 60 93 90 B0 5E AE AD B3 B1 AF 
  HI HI AE C7 88 55 1C 95 0A 0D 00 56 8A 5A 79 69 93 90 B0 75 AE AD B3 B1 AF 
  HI HI AE C7 87 55 01 95 FF 0D 00 56 2A 6B 77 60 93 90 B0 

  AS13063C1   10Apr99
  JST   14:37 - 14:55
 
  HI HI AE C7 88 55 0E 95 1A 0D 00 56 42 6A 86 5F 92 8F B0 74 B0 AF B5 B3 AE 
  HI HI AE C7 88 55 13 95 FF 0D 00 56 73 8  82 60 93 90 B0 91 B0 AF B5 B3 AE 
  HI HI AE C7 88 55 18 95 FF 1E 00 56     A 82 5F 92 8F B0 8E B0 AF B5 B3 AE 
  HI HI AE C7 88 55 1D 95 FF 0D 00 56 49 54 86 5F 92 8F B0 7E B0 AE B5 B3 AE 
  HI HI AE C7 88 55 0E F5 FF 0D 00 56       81 60 93 90 B0 7C AE AF B5 B3 AE 
  HI HI AE C7 88 55 0F 95 FF 0D 00 56 40 3C 8F 60 93 90 B0 7D AF AE B3 B1 AF 
  HI HI AE C7 88 55 14 95 FF 0D 00 56 5C 80 81 60 93 90 B0 8B AE AE B3 B1 AF 
  HI HI AE C7 88 55 19 95 FF 0D 00 56 8E 49 84 60 93 90 B0 6B AE AE B3 B1 AE 
  HI HI AE C7 88 55 0D 95 FF 0D 00 56       89 60 93 90 B0 7C AE AE B3 B1 AE 
  HI HI AE C7 88 55 03 95 05 0D 00 56 6D 9E 74 60 93 90 B0 7D AE AD B3 B1 AE 
  HI HI AE C7 88 55 08 95 FF 0D 00 56 8C 45 85 60 93 90 B0 97 AE AD B3 B0 AE 
  HI HI AE C7 88 55 0D 95 FF 0D 00 56 31 53 86 6O 93 90 B0 85 AE AD B3 B0 AF 
  HI HI AE C7 88 55 12 95 FF 0D 00 56 79 B3 6A 60 94 91 B0 6E AE AD B3 B0 AF
  HI HI AE C7 88 55 17 95 FF 0D 00 56 89 4A 80 60 93 91 B0 7D AD AD B3 B0 AF 
  HI HI AE C7 88 55 1C 95 FF 0D 00 56 2B 5F 71 60 94 91 B0 70 AD AC B2 B0 AE 
  HI HI AE C7 88 55 01 95 FF 0D 00 56 7B B7 66 60 94 91 B0 7B AD AC B2 B0 AE 
  HI HI AE C7 88 55 06 95 0A 0D 00 56 8B 5C 72 60 94 91 AF 75 AD AC B2 B1 AF 
  HI HI AE C7 88 55 0B 95 IE 0D 00 56 26 62 75 60 95 91 B0 70 AD AC B2 B0 AE 
 
  AS13048C1   9Apr99
  JST  12:10 - 1216 
                                               60 93 90 B0 75 AE AE B3 B1 AE 
  HI HI AE C7 88 55 0F 95 FF 00 00 56 71 73 8A 60 93 90 B0 6E AE AE B3 B0 AE 
  HI HI AE C7 88 55 14 95 FF 0D 00 56 76 3D 83 60 93 90 B0    AE AE B3 B0 AE 
  HI HI AE C7 88 55 IE 95 FF 00 00 56 42 56 89 60 93 90 AF 69 AE AD B3 B1 AE 
  HI HI AE C7 88 55 1E 95 FF 0D 00 56          60 93 90 B0 60 AE AD B3 B0 AE 
  HI HI AE C7 88 55 17 95 FF 0D 00 56 34 62 7D 60 94 91 B0 91 AD AC B2 B0 AE 
  HI HI AE C7 88 55 1C 95 FF 00 00 56          60 93 90 B0 B9 AD AC B2 B0 AE 
  HI HI ME C7 88 55  

  AS13036C1  8Apr99
  JST   14:48 - 14:58

  HI HI AE C7 88 51    8E FF 00 00 56  9 7D 9D    93 90 B7 80 AF AE B3 B1 AE 
  HI HI AE C7 88 51 1E 8E FF 0D 00 56 46 3D 84 60 93 90 B0 60 AF AE B3 B1 AE 
  HI HI AE C7 88 51 03 8E FF 0D 00 56 5B 6D 80 60 93 90 B0 80 AE AE B3 B1 AE 
  HI HI AE C7 88 55 08 8E FF 0D 00 56 83 4D 7E 60 93 90 B0 6F AE AD B3 B0 AE 
  HI HI AE C7 88 55 0D 8F FF 0D 00 56 48 3E 82 60 93 90 B0 83 AE AD B3 B1 AE 
  HI HI AE C7 88 55 12 90 FF 0D 00 56 5C 88 82 60 93 90 B0 6E AE AD B3 B0 AE 
  HI HI AE C7 88 51 17 91 FF 0D 00 56 90 6E 83 60 93 90 B0 72 AE AD B2 B0 AE 
  HI HI AE C7 88 51 1C 92 FF 0D 00 56 57 3C 7E 60 94 90 B0 79 AE AD B2 B0 AE 
  HI HI AE C7 88 51 01 93 FF 0D 00 56 45 90 6F 60 93 91 B0 94 AD AD B2 B0 AE
  HI HI AE C7 88 55 06 93 FF 0D 00 56 91 A2 78 60 94 91 B0 83 AD AC B2 B0 AE 
  HI HI AE C7 88 51 2E 94 FF 0D 00 56 77 51 72 60 94 91 B0 8C AD AC B2 B0 AE 
  HI HI AE C7 88 55 11 94 FF 0D 00 56 2F 70 66 60 94 90 B0 8A AD AC B2 B0 AE 
  HI HI AE C7 88 51 16 95 FF 0D 00 56 70 B6 66 60 94 90 B0 6A AD AC B2 B0 AE 
  HI HI AE C7 88 51 1B 95 FF 0D 00 56 91 84 69 60 94 91 B0 85 AD AC B2 B0 AE 
  HI HI AE C7 88 51 1E 95 FF 0D 01 56 95 88    60 94 91 B0 79 AD AB B2 B0 AE 
  HI HI AE C7 88 51 05 95 FF 0D 00 56 FF 8D D
 
  AS13035C1  8Apr99
  JST  13:03 - 13:12



  HI HI AE C7 88 55 02 8A FF 0D 00 56 41 5D 7F 60 92 90 B0 7B AF AE B4 B1 AE 
  HI HI AE C7 88 55 07 8A 0A 0D 00 56 62 39 88 60 92 90 B0 8B AF AE B4 B1 AE 
  HI HI AE C7 88 55 0C 8A FF 1A 00 56 4E 4D 85 5F 93 90 B9 7E AF AE B3 B1 AE 
  HI HI AE C7 88 55 11 8A FF 0D 00 56 47 53 84 60 93 90 B0    AF AE B3 B1 AE 
  HI HI AE C7 88 55 16 8A FF 0D 00 56 6D 37 83 60 93 90 B0 81 AF AE B3 B1 AE 
  HI HI AE C7 88 55 1B 8A FF 0D 00 56 4A 3D 8F 60 93 90 B0 86 AE AE B3 B1 AE 
  HI HI AE C7 88 55 00 8A FF 0D 00 56 4R 5E 89 60 93 90 B0 5E AE AE B3 B0 AE 
  HI HI AE C7 88 55 05 8A FF 0D 00 56 4B 4C 84 60 93 90 B0 72 AE AD B3 B0 AE 
  HI HI AE C7 88 55 0A 8A FF 0D 00 56 48 38 8C 60 93 90 B0 7C AE AD B3 B0 AE 
  HI HI AE C7 88 55 0F 8A FF 0D 00 56 50    81 60 93 90 B0 65 AE AD B3 B0 AE 
  HI HI AE C7 88 55 13 8A FF 0D 00 56 8E 5D 8A 60 93 90 B0 8B AE AD B2 B0 AE 
  HI HI AE C7 88 55 18 8A FF 0D 00 56 4F 34 88 60 93 91 B0 8A AD AD B2 B0 AE 
  HI HI AE C7 88 55 1D 8A FF 0D 00 56 4E 90 76 60 94 91 B0 85 AD AD B2 B0 AE 
  HI HI AE C7 88 55 02 8A FF 1A 00 56 98 85 87 60 94 91 B0 94 AD AC B2 B0 AE 
  HI HI AE C7 88 55 07 8A FF 0D 00 56 65 36 7E 60 94 91 B0 7D AD AC B2 B0 AE 
  HI HI AE C7 88 55 0C 8A FF 0D 00 56 38 87 79 60 94 91 B0 78 AD AC B2 B0 AE 
  HI HI AE C7 88 55 11 8A FF 1E 00 56 8F AD 75 60 94 91 B0 6D AD AC B2 B0 AE 
  HI HI AE C7 88 55 16 8A FF 0D 00 56 78 4C 74 60 94 91 B0 7A AD AC B2 B0 AE 
  HI HI AE C7 88 55 1B 8A FF 0D 00 56 29 6D 72 60 94 91 B0  

